SCP
1 1 1 1 1 1 1 1 0 0 0 0 0 0 0 0 0 0 0 0 0 0 0 0 0 0 0 0 0 0 0 0
0 0 0 0 0 0 0 0 0 0 0 0 0 0 0 0 0 0 0 0 0 0 0 0 0 0 0 0 0 0 0 0
0 0 0 0 0 0 0 0 0 0 0 0 0 0 0 0 0 0 0 0 0 -0 0 0 0 0 0 0 0 0 0 0
0 0 0 0 0 0 0 0 0 0 0 0 0 0 0 0 0 0 0 0 0 0 0 0 0 0 0 0 0 0 0 0
0 0 0 0 0 0 0 0 0 0 0 0 0 0 0 0 0 0 0 0 0 0 0 0 0 0 0 0 0 0 0 0
0 0 0 0 0 0 0 0 0 0 0 0 0 0 0 0 0 0 0 0 0 0 0 0 0 0 0 0 0 0 0 0
0 0 0 0 0 0 0 0 0 0 0 0 0 0 0 0 0 0 0 0 0 0 0 0 0 0 0 0 0 0 0 0
0 0 0 0 0 0 0 0 0 0 0 0 0 0 0 0 0 0 0 0 0 0 0 0 0 0 0 0 0 0 0 0
0 0 0 0 0 0 0 0 0 0 0 0 0 0 0 0 0 0 0 0 0 0 0 0 0 0 0 0 0 0 0 0
0 0 0 0 0 0 0 0 0 0 0 0 0 0 0 0 0 0 0 0 0 0 0 0 0 0 0 0 0 0 0 0
0 0 0 0 0 0 0 0 0 0 0 0 0 0 0 0 0 0 0 0 0 0 0 0 0 0 0 0 0 0 0 0
0 0 0 0 0 0 0 0 0 0 0 0 0 0 0 0 0 0 0 0 0 0 0 0 0 0 0 0 0 0 0 0
0 0 0 0 0 0 0 0 0 0 0 0 0 0 0 0 0 0 0 0 0 0 0 0 0 0 0 0 0 0 0 0
0 0 0 0 0 0 0 0 0 0 0 0 0 0 0 0 0 0 0 0 0 0 0 0 0 0 0 0 0 0 0 0
0 0 0 0 0 0 0 0 0 0 0 0 0 0 0 0 0 0 0 0 0 0 0 0 0 0 0 0 0 0 0 0
0 0 0 0 0 0 0 0 0 0 0 0 0 0 0 0 0 0 0 0 0 0 0 0 0 0 0 0 0 0 0 0
0 0 0 0 0 0 0 0 0 0 0 0 0 0 0 0 0 0 0 0 0 0 0 0 0 0 0 0 0 0 0 0
0 0 0 0 0 0 0 0 0 0 0 0 0 0 0 0 0 0 0 0 0 0 0 0 0 0 0 0 0 0 0 0
0 0 0 0 0 0 0 0 0 0 0 0 0 0 0 0 0 0 0 0 0 0 0 0 0 0 0 0 0 0 0 0
0 0 0 0 0 0 0 0 0 0 0 0 0 0 0 0 0 0 0 0 0 0 0 0 0 0 0 0 0 0 0 0
Wind_Speed_500mb
41 39 37 41 41 43 43 43 39 34 31 30 29 27 27 26 23 21 18 14 11 8 7 13 12 11 12 11 9 7 6 8
41 40 40 46 44 40 40 39 35 34 31 30 33 33 30 25 23 23 19 13 3 7 16 13 13 12 10 9 9 8 7 7
45 43 42 50 44 40 40 38 36 33 33 35 33 30 27 24 21 17 14 11 14 38 23 14 9 7 6 7 9 8 6 5
48 45 43 49 48 47 43 38 38 36 33 32 32 29 26 22 20 20 18 14 13 17 14 9 5 3 5 7 8 9 7 4
54 49 47 49 49 50 44 43 39 35 32 33 33 30 23 20 21 19 18 15 12 11 10 7 2 2 4 6 6 6 5 6
56 53 52 53 52 52 50 47 44 42 39 38 34 30 24 22 23 19 15 13 11 10 8 5 3 1 4 4 5 5 6 8
62 58 60 54 50 54 53 48 44 43 40 41 36 31 27 25 22 19 15 14 14 12 11 8 5 3 2 3 3 4 5 5
67 63 58 58 59 57 51 46 43 40 37 34 31 30 27 26 21 20 19 19 17 15 12 9 8 6 6 6 5 5 6 7
69 64 58 56 51 51 49 46 40 35 32 30 30 28 27 25 23 23 22 21 18 15 13 11 9 10 9 8 6 4 5 6
70 66 62 59 57 54 49 44 39 34 31 30 30 29 28 26 26 26 24 21 19 17 15 15 13 13 13 12 9 7 4 4
75 71 65 62 59 54 49 44 41 34 33 33 32 32 31 29 28 26 24 22 19 17 15 12 15 18 19 18 15 10 7 7
78 73 70 68 62 60 55 50 44 38 35 34 34 34 33 31 31 29 24 20 19 18 16 19 21 24 27 24 17 11 7 6
85 82 78 76 73 71 66 61 52 42 40 39 40 38 36 33 31 28 24 22 22 22 21 22 29 31 30 26 18 10 6 8
89 87 84 81 77 75 70 62 53 45 44 42 38 36 36 33 30 27 25 23 21 19 19 25 31 36 28 20 16 8 7 8
94 93 87 81 78 74 66 58 51 52 50 48 45 44 40 35 30 27 25 24 20 19 21 24 30 34 31 19 13 13 18 7
97 94 90 83 78 74 72 70 69 65 55 47 42 37 34 30 28 25 23 22 21 20 20 24 28 33 34 35 23 13 14 13
101 97 91 83 78 74 72 72 65 53 49 47 45 43 38 35 31 28 26 23 20 19 21 25 30 33 36 33 32 26 22 14
103 98 91 84 77 74 75 70 62 56 53 52 49 44 40 37 35 31 26 22 19 18 19 21 24 28 28 26 21 23 26 21
101 97 93 82 76 74 69 58 55 51 51 52 50 46 43 38 34 30 27 23 19 17 17 17 17 17 17 20 23 25 23 27
98 97 87 78 73 69 62 53 52 48 46 44 42 41 39 37 33 31 27 22 20 18 15 13 13 14 15 17 18 20 22 24
Wind_Direction_500mb
196 192 190 187 188 196 196 197 198 201 202 203 203 201 199 200 197 194 196 207 213 244 292 298 307 314 316 330 332 335 329 325
208 208 213 213 191 198 199 203 202 205 206 209 207 205 204 201 204 205 205 207 238 284 282 288 292 300 314 323 326 326 321 312
213 210 208 194 201 203 204 203 201 206 210 212 209 206 204 203 210 222 226 238 225 253 261 273 281 287 316 339 344 338 334 312
210 205 205 207 202 203 204 207 211 219 218 213 209 206 207 212 228 239 232 236 220 228 243 247 253 314 4 1 349 352 1 33
209 209 207 209 210 210 213 219 215 210 214 220 219 220 220 227 232 230 223 220 224 215 210 197 176 40 15 356 5 20 44 81
215 214 216 213 218 223 218 208 207 210 217 228 227 234 230 230 227 225 220 211 209 197 176 172 159 325 348 18 31 38 69 89
211 213 218 217 212 210 210 211 211 217 219 222 228 239 235 223 215 220 212 205 195 180 176 182 188 181 131 88 70 67 67 68
209 211 215 215 207 206 209 212 217 223 227 232 232 230 225 219 214 208 200 193 186 182 187 182 171 154 149 134 124 95 64 51
207 210 215 213 211 209 209 215 217 222 227 228 224 216 213 215 209 202 193 189 186 187 185 174 168 155 153 144 132 100 60 40
207 209 215 218 216 216 212 211 214 214 215 212 213 214 211 207 203 195 190 188 191 189 186 177 170 168 170 166 165 148 120 63
209 211 215 215 213 212 212 211 209 213 212 209 209 209 207 203 197 193 189 189 189 187 181 188 184 177 174 167 160 148 120 69
214 212 212 213 211 213 211 210 212 209 212 209 205 202 202 199 193 190 189 186 188 191 198 190 189 187 178 168 154 137 105 66
214 213 210 211 211 208 206 207 207 208 205 203 200 196 196 196 192 188 185 186 192 194 193 192 185 189 186 155 141 131 105 66
216 214 214 212 211 210 209 205 202 204 203 202 199 199 195 194 192 189 186 188 192 195 199 196 195 188 189 179 162 154 133 80
217 214 212 211 208 210 208 207 205 201 202 201 194 190 192 192 192 188 186 186 193 200 207 206 205 201 203 199 177 192 174 135
219 213 210 211 213 215 216 214 208 204 201 196 196 198 192 192 190 190 189 191 194 199 205 211 217 220 217 220 227 227 187 159
216 211 210 211 214 218 218 217 213 205 196 194 194 192 190 191 190 192 193 191 192 197 206 217 221 223 229 233 233 230 221 199
216 210 209 210 213 216 219 217 210 203 198 192 192 193 192 192 192 189 186 189 193 198 203 206 208 214 221 228 224 210 215 206
212 206 207 208 211 214 217 217 217 211 204 197 193 193 193 194 191 186 187 188 189 188 192 197 201 207 213 220 222 222 219 213
208 204 206 210 209 210 213 213 216 211 205 200 196 195 193 192 191 190 187 180 182 180 178 187 197 206 210 206 200 194 186 178
Wind_Speed_850mb
41 39 37 41 41 43 43 43 39 34 31 30 29 27 27 26 23 21 18 14 11 8 7 13 12 11 12 11 9 7 6 8
41 40 40 46 44 40 40 39 35 34 31 30 33 33 30 25 23 23 19 13 3 7 16 13 13 12 10 9 9 8 7 7
45 43 42 50 44 40 40 38 36 33 33 35 33 30 27 24 21 17 14 11 14 38 23 14 9 7 6 7 9 8 6 5
48 45 43 49 48 47 43 38 38 36 33 32 32 29 26 22 20 20 18 14 13 17 14 9 5 3 5 7 8 9 7 4
54 49 47 49 49 50 44 43 39 35 32 33 33 30 23 20 21 19 18 15 12 11 10 7 2 2 4 6 6 6 5 6
56 53 52 53 52 52 50 47 44 42 39 38 34 30 24 22 23 19 15 13 11 10 8 5 3 1 4 4 5 5 6 8
62 58 60 54 50 54 53 48 44 43 40 41 36 31 27 25 22 19 15 14 14 12 11 8 5 3 2 3 3 4 5 5
67 63 58 58 59 57 51 46 43 40 37 34 31 30 27 26 21 20 19 19 17 15 12 9 8 6 6 6 5 5 6 7
69 64 58 56 51 51 49 46 40 35 32 30 30 28 27 25 23 23 22 21 18 15 13 11 9 10 9 8 6 4 5 6
70 66 62 59 57 54 49 44 39 34 31 30 30 29 28 26 26 26 24 21 19 17 15 15 13 13 13 12 9 7 4 4
75 71 65 62 59 54 49 44 41 34 33 33 32 32 31 29 28 26 24 22 19 17 15 12 15 18 19 18 15 10 7 7
78 73 70 68 62 60 55 50 44 38 35 34 34 34 33 31 31 29 24 20 19 18 16 19 21 24 27 24 17 11 7 6
85 82 78 76 73 71 66 61 52 42 40 39 40 38 36 33 31 28 24 22 22 22 21 22 29 31 30 26 18 10 6 8
89 87 84 81 77 75 70 62 53 45 44 42 38 36 36 33 30 27 25 23 21 19 19 25 31 36 28 20 16 8 7 8
94 93 87 81 78 74 66 58 51 52 50 48 45 44 40 35 30 27 25 24 20 19 21 24 30 34 31 19 13 13 18 7
97 94 90 83 78 74 72 70 69 65 55 47 42 37 34 30 28 25 23 22 21 20 20 24 28 33 34 35 23 13 14 13
101 97 91 83 78 74 72 72 65 53 49 47 45 43 38 35 31 28 26 23 20 19 21 25 30 33 36 33 32 26 22 14
103 98 91 84 77 74 75 70 62 56 53 52 49 44 40 37 35 31 26 22 19 18 19 21 24 28 28 26 21 23 26 21
101 97 93 82 76 74 69 58 55 51 51 52 50 46 43 38 34 30 27 23 19 17 17 17 17 17 17 20 23 25 23 27
98 97 87 78 73 69 62 53 52 48 46 44 42 41 39 37 33 31 27 22 20 18 15 13 13 14 15 17 18 20 22 24
Wind_Direction_850mb
196 192 190 187 188 196 196 197 198 201 202 203 203 201 199 200 197 194 196 207 213 244 292 298 307 314 316 330 332 335 329 325
208 208 213 213 191 198 199 203 202 205 206 209 207 205 204 201 204 205 205 207 238 284 282 288 292 300 314 323 326 326 321 312
213 210 208 194 201 203 204 203 201 206 210 212 209 206 204 203 210 222 226 238 225 253 261 273 281 287 316 339 344 338 334 312
210 205 205 207 202 203 204 207 211 219 218 213 209 206 207 212 228 239 232 236 220 228 243 247 253 314 4 1 349 352 1 33
209 209 207 209 210 210 213 219 215 210 214 220 219 220 220 227 232 230 223 220 224 215 210 197 176 40 15 356 5 20 44 81
215 214 216 213 218 223 218 208 207 210 217 228 227 234 230 230 227 225 220 211 209 197 176 172 159 325 348 18 31 38 69 89
211 213 218 217 212 210 210 211 211 217 219 222 228 239 235 223 215 220 212 205 195 180 176 182 188 181 131 88 70 67 67 68
209 211 215 215 207 206 209 212 217 223 227 232 232 230 225 219 214 208 200 193 186 182 187 182 171 154 149 134 124 95 64 51
207 210 215 213 211 209 209 215 217 222 227 228 224 216 213 215 209 202 193 189 186 187 185 174 168 155 153 144 132 100 60 40
207 209 215 218 216 216 212 211 214 214 215 212 213 214 211 207 203 195 190 188 191 189 186 177 170 168 170 166 165 148 120 63
209 211 215 215 213 212 212 211 209 213 212 209 209 209 207 203 197 193 189 189 189 187 181 188 184 177 174 167 160 148 120 69
214 212 212 213 211 213 211 210 212 209 212 209 205 202 202 199 193 190 189 186 188 191 198 190 189 187 178 168 154 137 105 66
214 213 210 211 211 208 206 207 207 208 205 203 200 196 196 196 192 188 185 186 192 194 193 192 185 189 186 155 141 131 105 66
216 214 214 212 211 210 209 205 202 204 203 202 199 199 195 194 192 189 186 188 192 195 199 196 195 188 189 179 162 154 133 80
217 214 212 211 208 210 208 207 205 201 202 201 194 190 192 192 192 188 186 186 193 200 207 206 205 201 203 199 177 192 174 135
219 213 210 211 213 215 216 214 208 204 201 196 196 198 192 192 190 190 189 191 194 199 205 211 217 220 217 220 227 227 187 159
216 211 210 211 214 218 218 217 213 205 196 194 194 192 190 191 190 192 193 191 192 197 206 217 221 223 229 233 233 230 221 199
216 210 209 210 213 216 219 217 210 203 198 192 192 193 192 192 192 189 186 189 193 198 203 206 208 214 221 228 224 210 215 206
212 206 207 208 211 214 217 217 217 211 204 197 193 193 193 194 191 186 187 188 189 188 192 197 201 207 213 220 222 222 219 213
208 204 206 210 209 210 213 213 216 211 205 200 196 195 193 192 191 190 187 180 182 180 178 187 197 206 210 206 200 194 186 178